VINASAT-1

Last updated on Mon Sep 15 2025 00:02:46 GMT+0000 (Coordinated Universal Time)

1 32767U 08018A 25257.23364699 -.00000340 00000+0 00000+0 0 9991 2 32767 0.0396 302.0186 0002119 260.4698 7.0322 1.00271837 63825
UTC large
Height (km)
Speed (km/s)
/
Latitude / Longitude
Inclination (degrees)
Orbital Period (minutes)
Azimuth
Elevation
Range (km)
Doppler Factor

Next 0 passes for location: London (51.5072 / 0.1276)

Sorry there are no passes over London.